Temperature
13 13 14 15 18 19 20 20 20 19 20 19 19 20 22 22 22 21 16 16 16 16 16 16 16 16 16 16 16 16 16 16 16 16 16 16 16 16 16 16 16 16 16 16 16 16 16 16 16
12 13 14 16 18 19 20 20 19 19 19 17 18 19 20 20 17 16 15 16 16 16 16 16 16 16 16 16 16 16 16 16 16 16 16 16 16 16 16 16 16 16 16 16 16 16 16 16 16
12 13 14 17 18 20 20 19 19 18 17 17 18 18 19 18 16 15 15 16 16 15 15 16 16 16 16 16 16 16 16 16 16 16 16 16 16 16 16 16 16 16 16 16 16 16 16 16 16
12 13 15 17 17 18 19 18 18 18 17 17 18 18 16 14 14 14 15 15 15 15 15 16 16 16 16 16 16 16 16 16 16 16 16 16 16 16 16 16 16 16 16 16 16 16 16 16 16
12 14 15 16 17 17 17 16 16 18 18 17 17 18 16 14 14 14 15 15 15 15 15 16 16 16 16 16 16 16 16 16 16 16 16 16 16 16 16 16 16 16 16 16 16 16 15 15 15
12 15 16 16 16 16 16 15 16 17 17 16 17 17 15 13 14 14 14 15 15 15 15 15 15 15 15 15 15 16 16 15 16 16 15 15 16 16 16 16 16 16 16 16 16 15 15 15 15
13 15 16 16 15 15 16 15 16 17 17 16 16 17 15 13 13 14 14 14 14 15 15 15 15 15 15 15 15 15 15 15 15 15 15 15 15 15 16 16 15 15 15 15 15 15 15 15 15
12 15 14 15 15 15 15 14 14 15 16 14 14 16 15 13 13 14 14 14 14 14 14 15 15 15 15 15 15 15 15 15 15 15 15 15 15 15 15 15 15 15 15 15 15 15 15 15 15
11 14 14 14 15 15 14 14 14 13 14 13 13 14 13 13 13 13 14 14 14 14 14 14 14 15 15 15 15 15 15 15 15 15 15 15 15 15 15 15 15 15 15 15 15 15 15 15 15
13 14 14 13 14 14 13 14 13 14 14 14 13 13 13 13 13 13 13 13 14 14 14 14 14 14 14 14 14 15 15 15 15 15 15 15 15 15 15 15 15 15 15 15 15 15 15 14 14
12 13 12 12 12 12 13 13 13 14 15 15 14 13 12 12 13 13 13 13 13 13 13 14 14 14 14 14 14 14 14 14 14 14 14 14 15 15 15 15 15 15 15 15 15 15 14 14 14
12 11 11 12 11 12 12 12 13 13 14 13 12 12 12 12 12 12 12 13 13 13 13 13 13 13 13 13 13 14 14 14 14 14 14 14 14 14 14 14 14 15 14 14 14 14 14 14 14
12 11 11 10 11 11 11 12 12 12 12 12 11 11 12 12 12 12 12 12 13 13 13 13 13 13 13 13 13 13 13 13 14 14 14 14 14 14 14 14 14 14 14 14 14 14 14 14 14
11 11 11 11 11 11 12 12 12 12 11 11 11 11 11 11 11 12 12 12 12 12 12 12 13 13 13 13 13 13 13 13 13 13 13 13 13 14 14 14 14 14 14 14 14 14 14 14 14
10 11 12 11 12 11 12 13 13 12 11 11 11 11 11 11 11 11 11 12 12 12 12 12 12 12 12 13 13 13 12 12 12 12 13 13 13 13 13 13 13 13 13 13 13 13 13 13 13
11 12 13 12 12 11 13 13 13 11 11 12 11 11 11 11 11 11 11 11 12 12 12 12 12 12 12 12 12 12 12 12 12 12 12 12 12 12 13 13 13 13 13 13 13 13 13 13 13
12 12 12 12 12 12 12 13 13 11 11 12 12 11 11 11 10 10 11 11 11 11 11 11 11 12 12 12 12 12 12 12 12 12 12 12 12 12 12 12 12 12 12 12 12 12 12 12 13
11 12 11 12 12 11 12 12 13 12 11 12 12 11 11 11 10 10 10 11 11 11 11 11 11 11 11 11 11 11 11 11 11 11 12 12 12 12 12 12 12 12 12 12 12 12 12 12 12
11 11 11 11 11 11 12 12 13 13 12 12 12 11 11 10 10 10 10 10 10 10 11 11 11 11 11 11 11 11 11 11 11 11 11 11 11 11 11 11 11 11 11 12 12 11 11 11 11
10 11 11 11 10 11 11 12 13 13 12 12 12 11 11 10 10 9 9 9 9 10 10 10 10 10 10 10 10 11 11 11 11 11 11 11 11 11 11 11 11 11 11 11 11 11 11 11 11
10 10 10 10 10 11 11 13 13 13 11 11 11 11 10 10 10 9 9 9 9 9 9 10 10 10 10 10 10 10 10 10 10 10 11 11 11 11 11 11 11 11 11 11 11 11 11 10 10
10 9 9 9 10 11 10 12 14 13 12 12 12 11 10 10 9 9 9 9 9 9 9 9 9 9 9 9 9 9 9 9 10 10 10 10 10 10 10 10 10 10 10 10 10 10 10 10 10
9 9 9 9 10 10 10 10 13 12 12 13 13 11 10 10 9 9 9 9 8 9 9 9 9 9 9 9 9 9 9 9 9 9 9 10 10 10 10 10 10 10 10 10 10 10 10 10 10
9 9 9 9 9 10 10 10 13 13 13 13 12 11 10 9 9 9 8 8 8 8 8 8 8 8 8 8 9 8 8 9 9 9 9 9 9 9 9 9 9 9 9 10 10 10 10 9 9
9 10 10 11 11 12 10 9 12 13 12 12 11 11 10 9 9 8 8 8 8 8 8 8 8 8 8 8 8 8 8 8 8 8 8 8 8 9 9 9 9 9 9 9 9 9 9 9 9
9 9 10 11 12 12 10 10 13 12 11 10 9 9 9 9 8 8 8 8 8 8 8 8 8 8 8 8 8 8 8 8 8 8 8 8 8 8 8 8 8 9 9 9 9 9 9 9 8
9 9 9 9 9 9 12 12 12 11 11 10 10 9 9 9 8 8 8 8 8 8 8 8 8 7 7 7 7 7 7 7 7 7 7 7 7 8 8 8 8 8 8 8 8 8 8 8 8
8 8 8 8 9 11 13 12 13 12 12 11 11 10 9 9 8 8 8 8 8 8 8 8 7 7 7 7 7 7 7 7 7 7 7 7 7 7 7 7 7 7 8 8 8 8 8 8 7
8 7 8 8 9 10 11 13 13 12 11 11 10 10 9 8 8 8 8 8 8 8 7 7 7 7 7 7 7 7 6 6 6 7 7 6 7 7 7 7 7 7 7 7 7 7 7 7 7
8 8 8 8 8 8 9 12 12 11 10 9 9 9 8 8 8 8 8 8 8 7 7 7 7 7 7 7 6 6 6 6 6 6 6 6 6 7 7 7 7 7 7 7 7 7 7 7 7
Wind_Speed
3 2 2 4 6 7 15 10 7 7 6 3 3 4 5 5 3 2 4 4 4 6 8 10 9 10 11 11 11 11 12 12 12 12 13 13 12 12 12 12 12 11 11 11 11 11 11 11 10
1 2 3 5 9 12 13 11 9 7 4 3 3 3 4 3 2 4 3 3 4 6 8 9 9 9 10 11 10 10 11 11 11 12 12 12 12 12 12 12 12 11 11 11 11 11 11 10 10
2 2 4 6 10 14 10 8 8 5 3 3 3 2 2 2 2 2 3 3 4 6 7 9 9 9 9 10 10 10 9 9 10 11 12 12 12 12 12 12 11 11 11 11 11 11 11 10 10
3 3 3 8 13 11 5 4 5 6 4 3 3 4 2 2 2 2 3 4 5 6 7 9 8 8 9 9 9 9 8 9 9 10 11 11 12 11 11 11 11 11 11 11 11 11 11 10 9
3 5 6 8 11 7 4 2 4 6 5 3 4 3 3 2 2 3 4 5 5 5 6 8 7 7 8 8 8 8 8 8 8 9 10 10 11 11 11 11 12 11 11 11 11 11 11 10 9
4 5 7 10 9 6 5 2 4 5 4 3 4 4 3 3 3 4 4 5 5 5 5 6 7 7 7 7 8 8 8 7 7 8 9 9 9 10 10 10 11 11 11 11 11 11 11 10 10
4 6 8 9 8 7 4 2 4 4 4 3 2 4 4 3 3 3 4 5 5 5 4 4 5 6 7 6 6 7 7 7 7 7 7 8 8 9 9 10 11 11 11 11 11 11 11 10 10
1 4 6 7 8 6 3 2 1 3 2 1 1 4 4 4 3 4 4 4 4 4 4 3 3 3 4 5 6 6 6 6 7 7 6 7 8 9 9 10 10 11 11 11 11 11 11 11 10
2 4 6 6 7 5 3 2 1 1 2 1 0 0 3 4 4 4 4 4 4 3 3 2 2 2 2 3 4 5 6 6 7 7 7 7 8 8 9 9 9 10 10 10 11 11 11 11 10
2 4 3 2 2 3 3 2 2 3 3 2 2 2 3 4 4 4 3 3 3 2 2 2 2 1 1 2 3 3 4 5 6 6 7 7 7 7 7 7 8 9 10 10 10 10 11 11 9
1 2 3 1 1 1 2 1 1 4 3 3 3 4 3 4 3 3 3 2 2 1 1 1 1 1 0 1 2 2 2 3 5 5 6 6 6 6 6 6 8 9 10 10 9 11 10 10 8
3 3 1 1 0 1 1 1 1 2 2 0 1 2 3 4 4 3 2 2 2 1 0 0 0 0 0 1 1 2 2 2 3 4 6 5 4 5 5 5 6 7 8 8 8 7 9 9 10
3 3 2 2 1 1 1 1 1 2 2 1 2 3 4 3 3 2 2 1 1 1 1 1 1 1 1 1 1 2 2 3 3 4 5 5 4 5 5 5 6 7 7 7 7 7 8 8 8
3 3 1 1 1 1 1 1 1 2 2 3 3 3 3 3 2 2 2 2 1 1 1 1 1 1 1 1 2 2 2 3 3 4 5 6 5 5 5 5 6 6 7 7 7 7 7 6 6
2 3 2 2 1 1 1 2 3 2 3 3 3 3 2 2 2 3 2 2 2 2 1 1 1 1 2 2 2 2 3 3 3 4 5 6 6 5 5 5 5 6 6 7 6 7 6 6 6
1 2 1 2 2 2 2 3 2 2 4 4 4 4 4 3 3 2 2 2 2 2 2 1 1 2 2 2 2 2 2 3 3 4 4 6 6 6 6 5 5 6 6 5 5 5 6 6 6
2 1 0 0 2 2 2 5 2 2 4 6 6 6 5 5 5 4 3 3 2 2 2 2 2 2 2 2 2 2 2 2 3 3 4 4 6 7 6 5 5 6 5 5 5 5 5 5 6
1 1 1 1 2 3 5 7 7 5 6 7 7 7 6 6 6 5 4 3 3 3 3 3 2 2 2 2 2 2 2 2 3 3 3 5 5 6 6 5 6 6 5 5 6 5 5 4 4
2 1 1 2 3 4 6 10 11 8 7 8 8 7 7 7 6 4 4 4 4 3 3 3 3 2 2 2 2 2 3 3 3 3 4 5 5 5 5 5 5 6 6 6 7 5 5 4 3
1 1 2 3 3 4 7 11 10 8 8 7 8 8 7 7 5 5 5 5 5 4 3 3 3 3 3 2 3 3 3 3 3 3 3 4 5 5 5 5 5 6 6 7 7 6 4 4 4
1 1 3 5 7 4 6 7 6 5 6 6 7 8 8 7 7 5 5 5 5 5 4 3 4 4 3 3 2 2 2 3 3 3 3 3 4 4 5 5 5 5 6 6 7 7 7 6 5
1 1 3 5 5 3 3 5 5 5 6 6 6 7 7 6 6 6 5 6 5 5 4 4 4 4 4 3 3 4 4 4 4 4 4 3 4 4 4 4 4 5 5 5 6 6 6 7 6
1 2 3 4 4 5 4 5 6 3 6 6 5 5 5 5 6 6 6 6 5 5 4 4 4 4 4 4 4 4 5 5 4 4 5 4 3 3 3 4 4 4 4 5 5 5 6 6 7
1 2 2 2 2 4 3 5 6 4 5 3 3 4 4 5 5 5 5 5 5 4 4 5 5 5 4 4 4 5 6 6 6 6 5 4 3 3 4 4 4 5 5 5 6 6 7 6 7
1 3 2 2 3 3 1 5 8 4 4 5 6 5 4 4 4 5 5 5 5 5 5 5 6 5 5 5 5 6 6 7 7 6 6 5 4 4 4 4 5 5 5 5 5 6 6 7 7
2 2 2 3 3 4 3 7 6 3 4 6 6 6 5 4 4 5 5 5 5 5 5 5 6 5 5 5 6 6 6 5 5 6 6 6 5 5 5 5 5 5 5 4 5 5 5 5 6
1 1 1 2 3 6 6 6 7 4 4 4 4 4 4 5 5 6 6 6 6 6 6 6 6 6 6 6 6 6 6 6 6 6 6 5 5 5 5 5 5 5 4 4 4 4 4 4 5
2 1 2 2 3 5 6 6 4 3 3 3 4 5 6 6 6 6 6 7 7 6 6 6 7 7 6 6 6 5 6 6 6 5 6 6 6 5 5 5 5 4 4 4 4 3 4 4 4
3 3 3 3 3 4 5 4 1 3 3 4 5 6 7 8 8 7 7 7 7 6 6 6 6 7 6 6 6 6 6 6 6 6 6 6 5 5 5 5 5 5 4 4 4 4 4 4 4
5 5 5 4 4 5 6 8 2 4 4 5 8 9 9 9 8 8 7 7 7 7 7 7 7 7 7 6 6 6 6 6 6 6 6 5 5 4 4 4 4 4 4 5 5 4 4 4 4
Wind_Direction
302 294 237 202 198 216 226 213 206 187 192 203 210 210 208 202 204 120 88 108 125 146 148 147 144 148 151 153 154 155 156 159 160 161 160 159 160 159 159 158 153 149 147 143 138 133 130 126 122
269 224 201 204 214 215 220 209 200 194 170 160 186 199 195 184 60 83 108 93 130 143 148 147 141 147 150 149 150 151 157 162 166 165 163 162 162 161 161 160 157 154 150 147 143 138 135 132 128
193 209 199 199 217 221 212 195 192 176 162 181 171 192 207 143 94 86 79 117 139 140 147 137 139 146 148 149 149 152 157 163 167 169 168 167 166 167 166 164 160 155 153 150 148 144 142 139 136
187 175 199 217 215 219 213 166 184 177 177 190 177 153 130 49 24 46 98 131 136 136 140 136 139 145 149 150 151 153 158 165 168 169 171 173 172 173 172 169 164 161 159 157 155 152 150 149 146
187 183 193 211 214 206 199 169 190 192 182 179 188 164 130 74 51 85 113 123 128 130 133 138 140 143 144 151 155 154 158 162 167 173 175 176 177 176 176 175 172 170 169 167 165 163 160 158 157
172 189 201 205 198 195 193 193 195 194 183 172 182 165 124 86 94 97 107 112 114 117 124 133 139 144 144 147 156 160 163 166 171 176 178 176 178 178 179 177 177 179 178 176 175 173 170 168 169
189 186 199 198 189 191 184 200 198 184 181 164 180 167 139 124 97 107 109 109 108 106 110 119 140 150 149 150 154 160 165 171 173 173 174 173 175 178 183 183 182 185 185 183 183 181 178 178 178
194 168 173 186 189 189 174 171 172 201 168 85 225 189 157 133 119 115 106 105 103 101 99 106 118 143 161 167 157 159 165 170 174 174 171 174 174 179 181 188 186 187 189 188 188 188 186 185 182
222 190 182 181 186 169 164 169 143 200 168 170 230 330 106 126 144 133 122 113 103 95 90 90 100 119 154 170 161 172 171 174 180 181 177 185 191 190 186 189 182 188 192 192 192 192 190 187 186
216 188 174 161 183 164 159 166 156 173 184 183 167 144 138 154 163 154 150 144 128 99 75 90 95 100 133 161 176 184 191 190 198 197 191 198 199 195 194 180 182 190 192 195 197 195 194 201 199
105 142 126 127 132 150 157 146 183 189 213 218 192 169 162 169 170 163 160 157 148 126 67 63 90 103 155 192 194 193 201 202 209 205 200 204 202 198 198 195 192 199 198 202 197 202 208 210 208
106 99 111 106 84 159 159 161 168 241 252 306 182 178 185 187 183 178 176 179 170 157 133 339 219 191 248 242 218 209 213 215 217 215 208 206 207 210 206 205 205 206 206 207 207 212 213 215 214
98 113 82 70 81 125 164 198 246 256 245 204 173 179 187 193 197 192 197 205 199 201 215 312 301 241 242 239 236 219 223 226 224 225 222 218 216 218 218 219 215 215 214 213 213 216 217 220 220
92 107 88 15 58 89 137 248 228 239 178 161 168 183 190 199 203 202 215 231 238 250 274 302 300 278 255 245 244 241 231 232 233 227 228 225 226 226 223 225 224 223 221 221 221 220 218 218 220
112 108 92 38 29 22 288 262 212 207 174 175 188 197 199 211 218 225 238 253 261 267 282 289 293 289 270 259 256 254 246 238 236 236 232 228 229 232 229 229 226 224 221 220 224 222 221 221 220
120 143 147 42 360 331 255 244 185 192 199 223 227 220 218 227 233 238 246 256 261 263 270 283 296 293 281 270 256 251 250 245 241 246 239 233 233 235 235 233 230 224 218 217 217 217 219 220 224
88 128 224 13 14 327 255 251 246 236 237 245 241 231 227 229 235 239 241 249 257 261 261 263 273 281 289 283 265 253 246 250 249 248 251 244 239 235 234 236 234 224 218 218 217 214 219 220 224
114 109 239 287 344 306 266 261 269 261 248 248 242 237 235 236 238 237 236 240 248 256 256 257 266 274 277 275 267 252 242 246 256 255 258 257 247 239 235 236 234 226 219 215 213 209 211 221 221
111 181 286 302 322 292 271 272 273 268 246 240 237 237 239 243 245 236 230 232 242 250 255 262 271 271 268 262 259 253 254 256 254 262 268 261 254 244 237 240 238 229 221 220 215 210 207 215 218
127 277 320 319 327 294 285 279 272 258 239 236 239 239 241 244 244 233 223 221 234 244 250 265 269 269 262 255 263 262 267 261 260 269 271 265 255 248 240 235 238 231 224 222 216 211 210 212 209
39 295 326 320 318 284 297 276 238 234 236 239 240 240 239 239 239 230 225 225 232 242 245 253 264 268 264 256 253 259 259 262 256 258 261 268 259 246 241 240 240 234 228 224 218 213 211 211 212
329 348 302 306 306 302 317 287 254 235 246 237 232 230 236 236 238 237 233 232 233 242 248 252 255 258 259 253 241 245 248 252 260 265 262 263 261 253 242 241 240 238 230 225 222 219 220 215 213
330 327 294 288 284 283 245 260 270 237 243 235 231 232 239 240 241 243 240 238 240 241 244 248 248 249 250 250 248 250 254 257 263 265 263 262 260 258 253 241 237 238 232 225 220 215 217 219 217
278 282 265 239 251 258 233 243 271 227 234 248 248 253 252 250 250 250 246 241 240 235 238 243 241 243 244 244 244 250 257 257 255 258 260 261 259 256 254 245 234 233 230 226 221 215 213 214 216
295 302 285 246 239 254 178 250 259 263 260 266 276 281 285 266 258 253 247 241 240 239 238 239 241 242 239 241 244 249 256 255 251 253 253 254 252 250 250 245 240 235 229 225 221 215 214 214 213
309 294 298 295 290 298 248 249 263 275 278 272 273 278 286 283 273 263 253 245 242 242 240 240 241 242 239 240 243 247 249 250 251 251 252 252 252 251 252 247 243 241 233 224 219 216 216 217 217
232 214 317 285 286 280 262 266 279 251 260 262 268 280 292 293 283 272 260 252 249 246 243 240 241 244 242 242 244 248 249 248 250 251 250 251 251 251 247 245 242 236 227 221 215 215 213 213 215
281 190 200 235 284 284 280 265 260 236 248 266 276 293 307 303 295 283 266 257 254 251 247 244 242 242 245 244 243 244 246 249 250 250 247 245 245 240 238 237 235 228 220 214 213 212 210 207 211
194 199 220 237 262 276 291 279 249 250 279 285 292 304 308 303 298 288 273 262 255 252 248 244 243 242 242 243 243 243 245 246 246 245 244 240 238 234 232 228 228 224 220 216 211 210 204 204 205
244 233 214 242 249 248 275 279 316 269 289 293 299 306 307 303 297 289 279 267 256 250 246 243 243 242 243 244 245 246 244 242 243 243 241 236 233 229 226 223 223 222 221 219 214 208 206 206 204
Height
1504 1506 1509 1512 1511 1506 1499 1497 1499 1503 1504 1507 1507 1506 1504 1505 1506 1513 1514 1513 1514 1516 1518 1520 1522 1524 1526 1527 1529 1530 1532 1533 1534 1535 1536 1537 1538 1539 1539 1540 1541 1541 1542 1542 1543 1543 1544 1544 1544
1504 1506 1510 1510 1503 1500 1496 1496 1501 1502 1505 1508 1508 1508 1507 1508 1511 1512 1512 1512 1514 1516 1518 1520 1522 1524 1526 1527 1529 1530 1532 1533 1534 1535 1536 1537 1538 1539 1540 1540 1541 1542 1542 1543 1543 1544 1544 1545 1545
1504 1506 1509 1504 1498 1492 1492 1497 1500 1505 1507 1507 1508 1508 1508 1510 1511 1512 1511 1512 1514 1516 1518 1520 1522 1524 1525 1527 1529 1530 1531 1533 1534 1535 1536 1537 1538 1539 1540 1540 1541 1542 1542 1543 1544 1544 1545 1545 1546
1504 1507 1508 1502 1497 1495 1496 1500 1502 1504 1507 1507 1507 1508 1510 1511 1511 1511 1511 1513 1515 1517 1518 1520 1522 1523 1525 1527 1528 1529 1531 1532 1533 1535 1536 1537 1537 1538 1539 1540 1541 1542 1543 1543 1544 1544 1545 1546 1546
1503 1504 1502 1500 1498 1499 1501 1504 1505 1503 1504 1507 1507 1507 1509 1510 1509 1511 1512 1513 1515 1517 1519 1520 1522 1523 1525 1526 1527 1529 1530 1531 1532 1534 1535 1536 1537 1538 1539 1540 1541 1542 1542 1543 1543 1544 1545 1545 1546
1502 1500 1498 1497 1499 1502 1503 1505 1505 1504 1505 1507 1508 1508 1510 1510 1510 1511 1512 1513 1515 1516 1518 1520 1521 1523 1524 1525 1527 1528 1529 1530 1531 1533 1534 1535 1536 1537 1538 1539 1540 1541 1542 1542 1543 1544 1544 1545 1546
1501 1497 1495 1495 1499 1502 1504 1505 1504 1504 1505 1507 1508 1508 1509 1510 1510 1511 1512 1514 1515 1516 1517 1519 1520 1522 1523 1525 1526 1527 1528 1529 1530 1531 1533 1534 1535 1536 1537 1538 1539 1540 1541 1541 1542 1543 1544 1544 1545
1499 1498 1497 1497 1499 1501 1504 1505 1505 1505 1506 1508 1509 1508 1509 1510 1510 1511 1512 1513 1515 1516 1517 1518 1519 1520 1522 1523 1524 1526 1527 1528 1529 1530 1531 1532 1533 1534 1535 1536 1537 1538 1539 1540 1541 1542 1543 1543 1544
1500 1499 1496 1498 1498 1501 1504 1504 1506 1506 1507 1508 1508 1508 1509 1509 1510 1511 1512 1513 1514 1515 1516 1517 1518 1519 1520 1521 1522 1523 1525 1526 1527 1528 1529 1530 1531 1532 1534 1535 1536 1537 1538 1538 1539 1540 1541 1542 1542
1500 1496 1498 1501 1501 1502 1504 1504 1505 1506 1506 1507 1507 1508 1508 1509 1510 1511 1512 1512 1513 1514 1515 1516 1516 1517 1518 1519 1520 1521 1522 1523 1524 1525 1526 1528 1529 1530 1531 1532 1533 1534 1535 1536 1537 1538 1539 1540 1541
1500 1499 1502 1504 1504 1504 1504 1505 1505 1505 1504 1505 1506 1507 1508 1509 1510 1510 1511 1511 1512 1512 1513 1514 1515 1516 1517 1517 1518 1519 1520 1521 1522 1523 1524 1525 1526 1527 1528 1529 1530 1532 1533 1534 1535 1536 1537 1538 1538
1502 1504 1505 1505 1505 1505 1505 1505 1505 1505 1505 1505 1506 1506 1507 1508 1509 1509 1509 1510 1510 1511 1512 1512 1513 1514 1515 1515 1516 1516 1517 1518 1519 1519 1521 1522 1523 1524 1525 1526 1527 1528 1529 1531 1532 1533 1534 1535 1536
1504 1505 1506 1506 1506 1506 1506 1506 1505 1505 1505 1505 1505 1505 1506 1507 1508 1508 1508 1509 1509 1510 1510 1510 1511 1512 1512 1513 1513 1514 1515 1515 1516 1517 1517 1518 1519 1520 1521 1522 1523 1525 1526 1527 1528 1529 1531 1532 1533
1506 1506 1507 1507 1506 1506 1506 1505 1506 1505 1505 1504 1505 1505 1505 1506 1506 1507 1507 1508 1508 1508 1508 1508 1509 1509 1510 1510 1511 1511 1512 1512 1513 1513 1514 1515 1516 1517 1518 1519 1520 1521 1522 1523 1525 1526 1527 1528 1529
1507 1506 1506 1507 1506 1507 1506 1503 1504 1504 1504 1504 1504 1504 1504 1505 1505 1506 1506 1506 1506 1506 1506 1507 1507 1507 1507 1508 1508 1509 1509 1509 1510 1510 1511 1511 1512 1513 1514 1515 1516 1517 1518 1519 1521 1522 1523 1524 1525
1506 1504 1504 1507 1507 1507 1507 1501 1502 1503 1503 1503 1503 1503 1503 1503 1504 1504 1504 1504 1504 1504 1504 1505 1505 1505 1505 1505 1505 1506 1506 1506 1507 1507 1507 1508 1509 1509 1511 1511 1512 1513 1514 1515 1516 1518 1519 1520 1521
1505 1504 1505 1506 1507 1506 1504 1500 1501 1502 1502 1501 1501 1501 1502 1502 1502 1502 1502 1502 1502 1502 1502 1502 1502 1502 1502 1502 1502 1502 1502 1503 1503 1504 1504 1504 1505 1506 1507 1508 1508 1510 1510 1511 1512 1513 1515 1515 1517
1507 1506 1506 1506 1506 1506 1503 1500 1499 1500 1500 1499 1499 1499 1499 1499 1499 1499 1499 1499 1499 1499 1499 1499 1500 1500 1500 1499 1499 1500 1500 1500 1500 1500 1500 1501 1501 1502 1503 1503 1504 1505 1506 1507 1508 1509 1510 1511 1512
1509 1509 1506 1507 1508 1507 1501 1498 1496 1496 1497 1496 1496 1497 1497 1497 1497 1497 1496 1496 1496 1496 1497 1497 1497 1497 1497 1496 1496 1496 1497 1496 1497 1497 1497 1497 1498 1498 1499 1499 1500 1501 1502 1503 1504 1505 1506 1507 1509
1511 1509 1507 1507 1508 1507 1501 1496 1492 1492 1493 1493 1493 1493 1494 1494 1494 1494 1493 1493 1493 1493 1493 1493 1493 1493 1493 1493 1493 1493 1493 1493 1494 1494 1494 1494 1494 1494 1495 1495 1496 1497 1498 1499 1500 1501 1502 1503 1504
1511 1510 1510 1510 1508 1505 1503 1490 1487 1488 1490 1490 1490 1490 1491 1491 1491 1491 1490 1490 1490 1490 1490 1490 1490 1490 1490 1490 1490 1490 1490 1490 1490 1490 1490 1490 1490 1490 1491 1491 1492 1493 1494 1495 1496 1497 1498 1499 1500
1511 1514 1514 1512 1508 1502 1505 1494 1482 1484 1486 1486 1486 1487 1487 1488 1488 1488 1488 1487 1487 1487 1487 1487 1487 1487 1487 1487 1487 1486 1486 1486 1486 1486 1486 1486 1486 1486 1487 1487 1488 1489 1490 1491 1491 1492 1493 1494 1495
1514 1515 1514 1512 1509 1507 1502 1502 1482 1483 1482 1480 1482 1483 1484 1485 1485 1485 1484 1484 1484 1484 1484 1484 1484 1483 1483 1483 1483 1483 1483 1483 1483 1483 1482 1482 1482 1482 1483 1483 1484 1484 1485 1486 1487 1488 1489 1490 1490
1516 1515 1512 1511 1508 1504 1499 1499 1482 1477 1478 1478 1480 1481 1482 1482 1482 1482 1482 1481 1481 1481 1480 1480 1480 1480 1480 1480 1479 1479 1479 1479 1479 1478 1478 1478 1478 1478 1478 1479 1479 1480 1481 1481 1482 1483 1484 1485 1486
1515 1512 1506 1502 1500 1493 1501 1499 1483 1475 1478 1479 1479 1479 1480 1479 1479 1479 1478 1478 1478 1477 1477 1477 1476 1476 1476 1476 1476 1475 1475 1475 1475 1474 1474 1474 1474 1474 1474 1475 1475 1476 1476 1477 1478 1479 1480 1480 1481
1515 1513 1510 1503 1495 1489 1498 1491 1476 1476 1478 1479 1479 1478 1478 1477 1476 1476 1475 1475 1475 1474 1474 1473 1473 1473 1473 1472 1472 1472 1471 1471 1470 1470 1470 1470 1469 1470 1470 1471 1471 1471 1472 1473 1474 1474 1475 1476 1476
1514 1513 1514 1512 1510 1504 1485 1481 1475 1475 1475 1476 1476 1476 1476 1475 1474 1473 1473 1472 1472 1471 1471 1470 1469 1469 1469 1468 1468 1468 1467 1467 1466 1466 1466 1465 1465 1465 1466 1466 1466 1467 1467 1468 1469 1470 1471 1472 1472
1517 1515 1515 1513 1506 1492 1478 1476 1471 1470 1472 1473 1474 1474 1474 1473 1472 1471 1470 1469 1469 1468 1468 1467 1466 1466 1465 1465 1464 1464 1463 1463 1462 1462 1461 1461 1461 1461 1462 1462 1462 1463 1463 1464 1465 1466 1466 1467 1468
1517 1517 1514 1511 1508 1499 1485 1471 1468 1470 1471 1472 1473 1473 1472 1471 1469 1468 1467 1466 1465 1465 1464 1463 1463 1462 1462 1461 1461 1460 1459 1459 1458 1458 1458 1458 1458 1458 1458 1458 1459 1459 1460 1460 1461 1462 1462 1463 1464
1514 1511 1511 1510 1506 1505 1495 1478 1470 1471 1472 1473 1472 1471 1469 1468 1467 1465 1464 1462 1462 1461 1460 1459 1459 1458 1458 1457 1457 1456 1456 1455 1455 1454 1454 1454 1454 1454 1454 1455 1455 1456 1456 1457 1458 1458 1459 1460 1460